H-2A R/B, 40268

Orbit data source: Space-Track

H-2A R/B, 40268 is space debris in HEO originally from a launch on Tue, 07 Oct 2014 UTC launched from the Tanegashima Space Center (TNSTA). Debris objects in space refer to the collection of defunct objects orbiting the Earth. Examples of debris include non-operational satellites, rocket bodies, and fragments generated from explosions, collisions, or faulty payload assembly.

Loading next visibility...
Identifier
40268, 2014-060B
Orbit
HEO
Country
Flag of JPJP / JPN
Related business
Manufacturer
MHI Tobishima
Mission
Spacecraft
Bus & Motor
H-2A STAGE 2, Unknown motor
Mass
4,000 kg wet, 4,000 kg dry
Launch date (UTC)
2014-10-07 (11 years ago)
Launch vehicle
Unknown
Launch site
Tanegashima Space Center (TNSTA)
Object type
Payload
Rocket body
Debris
Shape & HBR
Cyl, 4.6 m
Radar Cross Section
35.186 m², Large (>1 m²)

Expand to show TLE details & history
Last TLE update: 1 day ago

TLE from 1 day ago
0 H-2A R/B
1 40268U 14060B   25348.13833587  .00012157  00000-0  13095-2 0  9997
2 40268  22.6677  33.3369 6647821 287.2862  13.8226  3.13700612107977
Epoch: 2025-12-14T03:19Z
TLE epoch observation values (Epoch: 2025-12-14T03:19:12.219Z)
Latitude
0.00006°
Longitude
-99.51996°
Altitude
2,826.64 km
Speed
8.147 km/s
True Right ascension
02h 13m 20s
True Declination
0° 00' 00"
Sunlit
Object was in daylight at epoch
Visualization orbit readout
Latitude
Unknown
Longitude
Unknown
Altitude
Unknown
Speed
Unknown
Apparent Right ascension
Unknown
Apparent Declination
Unknown
Sunlit
N/A
Visualization observer readout
Local Sidereal Time
13:18:52
Azimuth
Unknown
Elevation
Unknown
Doppler factor
Unknown
Orbital elements
Apogee altitude
26,444.568 km
Perigee altitude
230.991 km
Semi-major axis
19,715.917 km
Eccentricity
0.66478
Inclination
22.6677°
RAAN
33.3369°
Arg. of periapsis
287.2862°
True anomaly
72.5482°
Mean anomaly
13.8226°
Eccentric anomaly
36.45473°
Mean motion
0.784 °/min
Orbital period
459.18 mins
BSTAR
0.0013095
Loading maneuver chart data...
Computing Atmospheric mass density...
Loading historical data...
Loading historical data...
Loading historical data...
Loading historical data...
Loading historical data...
Loading historical data...
Loading historical data...
Other satellites on launch #60 in the year 2014 (2014-10-07 UTC)

Documentation

Showing up to 5 results
|